Temperature
15 16 15 15 14 14 13 12 11 12 12 12 12 12 13 13 13 13 13 13 13 13 13 12 12 12 12 12 12 12 12 13 13 13 13 13 14 14 14 14 14 14 14 14
15 16 16 15 15 14 14 13 12 12 12 13 13 13 13 14 14 14 14 13 13 13 13 12 12 12 12 12 12 12 12 12 12 12 13 13 13 13 13 13 13 13 13 14
14 16 15 14 15 14 14 14 13 13 13 13 13 13 14 14 14 14 14 14 14 13 13 13 12 12 12 12 12 12 12 12 12 12 12 12 12 13 13 13 13 13 13 13
13 15 15 14 15 15 15 15 14 14 14 14 14 14 14 14 14 14 14 14 14 14 13 13 13 12 12 12 12 12 12 12 12 12 12 12 12 12 12 12 12 12 12 12
12 14 14 15 15 15 15 15 15 14 15 15 15 14 14 15 15 14 14 14 14 14 14 13 13 13 13 12 12 12 12 11 11 12 12 12 12 12 11 11 11 11 12 12
13 15 14 15 15 17 15 14 15 15 15 15 14 11 13 15 15 15 15 15 14 14 14 14 13 13 13 12 12 12 12 12 11 11 11 11 11 11 11 11 11 11 11 11
13 14 14 15 16 16 14 14 16 16 16 15 15 13 15 15 15 15 15 15 15 14 14 14 14 13 13 13 12 12 12 12 12 11 11 11 11 11 11 11 11 11 11 11
12 14 14 16 15 14 14 16 16 16 16 16 15 15 15 15 15 15 15 15 15 15 14 14 14 14 13 13 13 12 12 12 12 11 11 11 11 11 11 11 11 11 11 11
13 13 15 17 17 17 17 16 16 16 16 16 15 15 15 15 15 15 15 15 15 15 15 14 14 14 14 13 13 13 12 12 11 11 11 11 11 11 11 11 11 11 11 11
13 14 16 17 17 17 17 17 16 16 16 16 15 15 15 15 15 15 15 15 15 15 15 15 14 14 14 14 13 13 12 12 11 11 11 11 11 11 11 11 11 11 11 10
14 14 15 16 17 17 17 17 16 16 16 16 15 15 15 15 15 15 15 15 15 15 15 15 14 14 14 14 13 13 12 12 12 11 11 11 11 11 11 10 10 10 10 10
13 15 15 17 17 17 16 16 16 16 16 15 15 15 15 15 15 15 15 15 15 15 15 15 15 14 14 14 13 13 12 12 12 11 11 11 11 11 10 10 10 10 10 10
20 19 18 18 17 17 17 16 16 16 16 15 15 15 15 15 15 15 15 15 15 15 15 15 14 14 14 14 13 13 13 12 12 11 11 11 11 10 10 10 10 10 10 9
20 19 18 18 17 17 16 16 16 16 15 15 15 15 15 15 15 15 15 15 15 15 15 15 14 14 14 14 13 13 13 12 12 11 11 11 11 11 10 10 10 10 10 10
19 19 19 18 17 17 16 16 16 15 15 15 15 15 15 15 15 15 15 15 15 15 15 15 14 14 14 14 13 13 13 12 12 12 11 11 11 11 11 10 10 10 10 10
18 18 18 18 17 16 16 16 16 15 15 15 15 15 15 15 15 15 15 15 15 15 15 15 14 14 14 14 14 13 13 13 12 12 12 12 11 11 11 11 10 10 10 10
18 17 17 17 17 16 16 16 16 16 15 15 15 15 15 15 15 15 15 15 15 15 15 14 14 14 14 14 14 13 13 13 12 12 12 12 12 11 11 11 11 10 10 10
19 18 18 17 17 16 16 16 16 16 16 15 15 15 15 15 15 15 15 14 14 14 14 14 14 14 14 14 14 14 13 13 13 12 12 12 12 12 11 11 11 10 10 10
18 18 18 17 17 17 16 16 16 16 15 15 15 15 15 15 15 14 14 14 14 14 14 14 14 14 14 14 14 14 13 13 13 13 12 12 12 12 12 11 11 11 10 10
18 18 17 17 17 16 16 16 16 15 15 15 15 15 15 15 14 14 14 14 14 14 14 14 14 14 14 14 14 14 14 14 13 13 13 12 12 12 12 11 11 11 11 10
17 17 17 17 17 16 16 16 16 15 15 15 15 15 15 14 14 14 13 13 14 13 13 13 13 14 14 14 14 14 14 14 14 13 13 13 12 12 12 12 11 11 11 11
16 16 17 16 16 16 16 16 16 16 15 15 15 15 14 14 14 13 13 13 13 13 13 13 13 13 14 14 14 14 14 14 14 13 13 13 13 12 12 12 12 11 11 11
16 16 16 16 16 16 16 16 16 15 15 15 15 14 14 14 13 13 13 13 13 13 13 13 13 13 13 14 14 14 14 14 14 13 13 13 13 13 12 12 12 12 11 11
15 15 15 15 15 15 15 15 15 15 15 15 14 14 14 14 13 13 13 13 13 13 13 13 13 13 13 13 14 14 14 14 14 14 13 13 13 13 13 12 12 12 12 11
13 14 14 15 15 15 15 15 15 15 14 14 14 14 14 14 13 13 13 13 13 13 13 13 13 13 13 13 13 13 14 14 14 13 13 13 13 13 13 13 12 12 12 12
12 13 13 13 14 14 14 14 14 14 14 14 14 14 14 14 13 13 13 13 13 13 13 13 13 13 13 13 13 13 13 13 13 13 13 13 13 13 13 13 13 12 12 12
12 12 12 13 13 13 13 14 14 14 14 14 14 14 14 14 13 13 13 13 13 13 13 13 13 13 13 13 13 13 13 13 13 13 13 13 13 13 13 13 13 13 12 12
Wind_Speed
5 5 5 4 4 4 4 5 5 3 3 5 4 4 6 7 8 8 8 8 8 7 7 7 8 8 9 9 8 8 9 10 9 9 9 9 9 9 9 9 9 7 7 6
2 4 5 3 3 4 4 3 3 2 3 4 2 2 5 6 7 8 8 8 8 7 7 7 7 7 8 8 8 8 9 9 9 9 9 9 9 8 9 8 7 7 7 6
2 3 2 1 4 4 3 3 5 4 4 3 1 2 3 4 6 6 7 7 7 6 5 4 4 5 6 6 7 8 8 8 8 8 9 8 8 8 8 7 7 7 7 6
3 3 3 6 4 5 5 3 4 4 4 4 4 2 2 2 2 5 6 6 7 6 5 3 3 4 5 6 7 7 7 7 7 7 8 7 8 8 7 6 6 6 7 7
4 3 2 3 4 5 5 3 4 4 3 4 3 2 4 3 1 2 4 4 4 3 2 3 3 3 5 6 6 6 7 6 6 6 7 7 8 7 6 6 7 6 6 7
3 3 5 7 6 5 5 2 4 6 5 5 5 2 4 5 2 3 4 3 4 4 3 3 2 2 4 4 5 5 4 4 5 5 6 7 7 6 5 5 6 7 8 8
3 3 6 5 6 7 4 7 6 7 7 6 5 5 5 3 2 3 3 3 3 4 3 2 1 2 3 2 2 2 3 4 5 5 6 6 6 6 6 7 7 7 8 8
4 3 7 6 8 8 8 4 8 8 7 6 4 3 1 1 2 4 4 5 4 4 4 4 2 1 1 1 1 1 3 5 6 6 6 6 7 7 7 7 8 7 7 8
7 7 5 8 8 7 7 8 7 7 6 6 4 2 1 1 2 4 5 5 4 3 4 4 4 1 1 2 1 3 4 4 5 6 6 6 7 7 6 7 6 6 6 7
2 5 4 6 5 7 8 8 8 8 7 7 5 3 2 0 2 4 5 5 4 4 5 5 5 3 2 1 2 5 5 4 4 5 6 6 6 6 6 6 6 6 6 6
3 4 3 5 6 8 8 9 8 7 7 7 6 4 2 1 2 3 4 4 4 5 5 5 4 3 3 1 5 5 4 4 4 4 4 5 6 5 5 4 4 4 3 3
8 9 9 10 10 10 11 10 10 9 7 6 6 5 3 1 2 2 3 4 5 6 6 4 3 2 3 2 5 6 4 3 3 3 3 3 4 4 7 5 7 7 6 4
8 8 8 7 11 11 12 11 10 9 9 7 5 5 4 2 1 1 2 4 5 6 5 3 2 1 2 1 4 5 4 4 3 3 4 3 3 3 2 4 6 7 8 9
7 8 5 7 10 11 10 11 10 9 8 8 6 4 3 2 1 1 3 4 5 5 3 2 1 2 2 1 3 4 4 4 4 3 4 4 4 3 2 2 1 2 5 7
7 7 8 8 10 10 9 9 9 9 8 7 6 5 5 4 3 4 4 4 3 4 3 1 1 2 3 1 3 4 4 3 3 2 3 3 3 3 3 2 2 1 2 3
7 6 8 9 11 11 10 10 10 10 9 8 7 7 7 6 4 4 4 3 2 3 3 1 1 3 2 0 2 2 3 5 5 3 2 3 3 3 3 3 3 2 1 0
9 8 9 10 11 10 10 10 11 10 9 9 10 9 7 5 3 3 4 3 2 2 2 2 3 4 3 1 3 3 3 3 5 3 3 3 4 4 4 4 4 3 2 2
11 11 11 12 11 10 10 10 10 10 9 10 9 8 7 6 6 5 5 3 1 1 1 2 3 4 3 1 2 3 3 3 3 3 3 3 4 4 4 5 5 5 3 2
8 10 10 11 11 11 10 10 9 9 9 9 9 9 8 7 6 6 4 2 2 3 4 5 5 3 2 2 0 2 3 3 3 4 4 5 4 4 4 5 5 5 5 4
6 8 10 10 10 9 10 10 9 8 8 9 10 9 8 7 6 6 4 4 5 5 5 5 3 3 2 2 0 1 2 4 5 4 4 4 5 5 5 5 6 6 6 5
5 6 8 9 9 9 10 10 10 9 9 10 10 10 9 8 6 5 4 4 6 6 5 5 3 3 3 3 2 2 3 3 4 5 5 5 5 5 5 5 6 6 6 6
2 4 6 7 8 7 7 8 9 10 9 9 9 9 8 7 6 5 6 6 6 7 5 4 4 5 5 4 3 3 4 4 4 5 5 6 6 6 6 6 6 6 6 6
1 1 3 5 7 7 6 7 8 9 10 10 10 9 9 8 6 5 6 6 5 8 6 5 6 9 8 4 3 4 5 5 4 5 6 6 6 6 6 7 6 6 6 6
5 3 1 2 4 5 6 6 7 7 8 9 9 10 8 6 6 6 6 7 8 9 6 8 10 10 9 4 4 5 5 5 5 5 6 6 6 6 6 6 6 6 7 8
6 5 4 2 2 4 6 6 6 6 7 6 8 9 7 7 7 7 6 7 9 9 7 8 11 10 6 4 5 5 5 5 6 5 5 6 6 6 6 6 7 7 7 7
5 5 4 2 2 3 3 3 4 5 5 6 6 7 6 6 7 6 6 7 9 9 7 6 6 7 5 5 6 6 6 6 6 5 6 6 7 7 6 7 8 7 7 8
6 5 4 4 4 3 2 2 4 5 6 7 7 7 7 7 6 7 8 7 7 7 6 6 6 6 6 6 6 6 6 5 5 5 5 5 6 6 7 8 7 7 6 6
Wind_Direction
152 160 131 121 104 82 96 144 149 205 241 278 297 313 323 331 340 353 358 360 1 4 5 8 15 20 23 23 23 27 33 37 35 31 33 38 40 38 39 44 51 49 52 47
150 164 133 115 136 117 112 129 144 176 256 247 250 316 339 343 354 2 1 359 357 4 16 17 19 22 25 25 23 30 37 36 34 36 36 36 36 39 42 42 42 49 53 48
197 185 116 244 201 172 158 169 165 188 225 217 185 324 329 340 356 356 356 358 2 5 13 15 20 30 28 23 30 36 37 35 35 37 38 34 37 39 38 35 38 43 42 41
127 126 237 252 216 161 157 189 190 195 207 197 197 226 278 283 356 353 353 354 355 359 8 15 32 40 39 38 40 40 35 32 31 36 36 31 34 35 30 30 35 35 33 30
118 161 267 279 202 171 163 218 202 173 179 176 161 43 344 307 312 325 333 339 342 357 22 34 42 51 56 41 37 39 33 30 29 35 36 32 30 26 24 33 36 34 30 30
122 163 236 241 205 160 119 232 221 155 140 143 123 74 285 288 314 340 339 344 352 357 23 34 19 63 63 42 35 33 30 31 33 41 43 37 30 27 26 35 36 37 38 32
167 220 259 245 149 119 158 227 188 151 148 144 163 199 239 274 322 337 339 337 353 8 358 327 295 90 67 37 18 10 43 44 40 39 45 41 38 34 34 39 40 37 37 30
166 202 255 193 143 175 210 168 146 146 153 152 170 189 196 28 352 346 341 337 348 358 344 325 311 101 63 317 290 57 65 56 49 41 44 48 48 40 35 38 42 34 32 28
186 212 237 179 187 195 156 148 152 152 155 147 143 133 108 27 358 343 342 340 341 345 342 334 327 290 257 269 208 106 87 77 65 59 49 46 51 46 38 36 42 37 36 34
192 257 202 187 168 153 155 153 158 153 145 139 141 133 108 32 341 341 339 338 343 352 348 330 321 324 290 274 138 119 111 105 89 80 64 51 50 48 49 40 39 39 38 31
205 227 188 221 189 163 153 145 147 147 147 149 144 140 142 192 317 330 334 330 338 342 332 320 317 328 346 60 120 113 113 118 111 97 93 74 61 48 49 39 41 52 41 28
210 200 181 206 198 167 155 160 160 155 157 160 158 163 157 205 287 315 330 333 339 338 332 326 335 336 355 65 125 125 123 134 143 132 120 111 97 63 36 39 43 50 51 48
193 180 182 189 181 172 165 169 167 165 168 171 173 171 163 191 259 304 326 332 331 326 322 327 354 347 335 67 126 135 144 153 156 159 158 160 151 127 79 14 24 34 37 44
156 134 151 165 176 175 168 168 165 164 168 169 172 172 164 172 219 293 303 300 317 334 343 5 45 353 322 112 130 141 152 162 157 166 175 180 182 178 164 140 48 1 9 37
164 160 169 167 162 166 163 157 159 170 174 178 179 177 179 190 226 263 281 292 334 358 358 25 46 344 332 134 149 159 162 169 167 164 167 173 170 165 164 155 130 73 20 21
171 146 148 151 164 170 166 169 174 185 187 189 190 194 198 204 227 261 279 289 325 314 298 261 300 308 317 170 160 168 193 194 175 170 170 166 160 155 157 155 145 133 112 52
156 165 171 176 179 180 179 180 183 188 191 195 199 199 196 198 220 261 279 291 295 271 231 218 276 300 314 228 187 197 208 211 191 173 177 178 174 174 173 167 165 167 185 189
188 185 180 180 182 184 187 187 188 189 194 201 195 186 187 193 211 235 254 277 335 343 272 266 294 312 326 329 189 193 198 209 203 195 194 190 187 183 179 176 176 176 185 177
190 185 185 185 184 182 185 189 193 196 194 186 180 187 195 203 211 223 229 228 241 253 262 275 306 331 334 335 147 195 206 214 218 215 205 199 189 184 181 183 186 187 183 180
191 188 187 190 188 184 190 193 190 189 188 179 178 185 198 211 213 214 212 224 232 229 244 265 286 297 299 310 359 226 229 219 216 218 207 200 201 202 196 194 191 189 187 188
194 190 189 189 193 195 194 190 185 189 188 180 180 190 201 211 211 202 199 235 252 235 240 262 258 260 268 285 299 267 250 234 221 215 209 208 210 210 206 200 195 193 191 190
200 194 196 191 188 194 197 188 185 185 183 185 189 189 191 204 212 213 221 224 240 229 222 242 245 251 261 277 281 275 264 250 233 219 212 209 207 209 210 204 200 197 192 188
6 207 199 194 191 191 185 185 186 183 184 189 190 192 197 204 199 199 238 242 230 225 216 233 242 254 269 273 268 271 267 259 244 228 218 211 207 206 205 204 200 194 189 190
21 11 294 214 175 166 182 202 199 196 197 200 201 199 195 203 222 224 222 235 223 224 222 238 252 261 269 258 260 265 264 262 256 242 228 218 211 208 205 201 197 196 194 192
16 12 16 51 163 206 215 213 205 206 205 213 220 215 207 199 205 219 216 225 230 226 231 247 258 267 263 253 255 257 257 257 258 249 231 219 212 208 206 201 197 196 195 196
2 356 343 307 254 244 231 211 213 217 209 217 228 226 220 217 218 218 218 223 227 224 225 240 252 261 255 253 255 256 256 263 274 258 236 224 215 208 206 204 202 199 199 200
343 346 346 343 332 310 277 231 223 227 219 216 225 228 221 218 217 219 222 225 226 229 231 236 240 243 247 251 256 259 258 258 257 251 240 228 219 214 211 208 204 201 197 195
Height
1577 1575 1576 1578 1579 1580 1583 1588 1593 1590 1588 1583 1579 1577 1573 1570 1566 1563 1559 1555 1552 1548 1544 1541 1537 1534 1530 1527 1525 1522 1520 1518 1516 1516 1515 1514 1513 1513 1512 1512 1512 1512 1513 1513
1578 1576 1577 1580 1580 1580 1581 1583 1586 1586 1585 1579 1578 1576 1574 1571 1568 1565 1561 1558 1555 1552 1548 1545 1541 1538 1535 1532 1530 1527 1524 1522 1520 1519 1518 1517 1516 1515 1514 1514 1513 1513 1513 1512
1586 1578 1581 1587 1580 1579 1580 1580 1581 1585 1582 1578 1578 1576 1574 1572 1570 1567 1564 1561 1558 1554 1551 1548 1545 1542 1539 1537 1534 1531 1528 1526 1524 1522 1521 1519 1518 1517 1516 1515 1514 1514 1513 1512
1586 1585 1591 1583 1573 1574 1577 1577 1576 1577 1577 1576 1577 1576 1575 1573 1571 1568 1566 1563 1560 1557 1554 1551 1549 1546 1543 1541 1538 1535 1532 1530 1528 1526 1524 1522 1521 1519 1518 1517 1516 1515 1514 1513
1589 1589 1586 1579 1573 1573 1577 1578 1574 1575 1575 1575 1576 1576 1575 1573 1572 1569 1567 1565 1562 1560 1557 1554 1552 1549 1547 1544 1541 1538 1536 1534 1531 1529 1527 1525 1523 1522 1521 1519 1518 1516 1515 1514
1585 1585 1587 1575 1568 1569 1575 1579 1573 1573 1574 1575 1576 1579 1577 1573 1572 1570 1568 1566 1564 1561 1559 1556 1554 1552 1549 1547 1544 1542 1540 1537 1535 1532 1530 1528 1526 1525 1523 1522 1520 1519 1517 1516
1582 1582 1577 1566 1565 1570 1583 1578 1570 1571 1573 1574 1574 1575 1575 1573 1572 1570 1569 1567 1565 1562 1560 1558 1556 1554 1552 1549 1547 1545 1543 1540 1538 1535 1533 1531 1529 1528 1526 1525 1523 1521 1520 1518
1582 1582 1577 1562 1564 1569 1568 1565 1568 1570 1572 1573 1574 1574 1574 1573 1572 1570 1569 1567 1565 1563 1561 1559 1557 1555 1553 1551 1549 1547 1545 1543 1540 1538 1535 1534 1532 1530 1529 1527 1526 1524 1522 1521
1569 1568 1557 1557 1558 1560 1562 1564 1567 1569 1571 1572 1573 1573 1573 1573 1572 1570 1569 1567 1566 1564 1562 1560 1558 1556 1554 1553 1551 1549 1547 1545 1543 1541 1538 1537 1535 1533 1532 1530 1528 1527 1525 1523
1559 1556 1554 1556 1557 1559 1561 1563 1566 1568 1570 1571 1572 1573 1573 1572 1572 1570 1569 1568 1566 1564 1562 1561 1559 1557 1555 1554 1552 1551 1549 1547 1546 1544 1542 1540 1538 1536 1535 1533 1531 1529 1528 1526
1556 1553 1554 1555 1556 1558 1560 1562 1565 1567 1569 1571 1571 1572 1572 1572 1571 1570 1569 1568 1566 1565 1563 1561 1559 1558 1556 1555 1553 1552 1550 1549 1548 1546 1545 1543 1541 1540 1538 1536 1535 1533 1531 1529
1551 1546 1548 1549 1553 1556 1558 1561 1563 1566 1568 1569 1570 1571 1572 1572 1571 1570 1569 1568 1567 1565 1563 1562 1560 1558 1557 1556 1554 1553 1552 1550 1549 1548 1547 1546 1544 1543 1541 1540 1538 1536 1535 1533
1539 1541 1543 1545 1550 1553 1556 1559 1562 1564 1566 1568 1569 1570 1570 1571 1570 1570 1569 1568 1566 1565 1563 1562 1560 1559 1558 1556 1555 1554 1553 1552 1551 1550 1549 1548 1547 1546 1544 1543 1541 1539 1538 1536
1537 1539 1542 1544 1546 1550 1554 1557 1560 1562 1564 1566 1567 1568 1569 1569 1569 1569 1568 1567 1566 1565 1563 1562 1560 1559 1558 1557 1556 1555 1553 1552 1552 1551 1550 1549 1549 1547 1546 1545 1544 1542 1540 1538
1536 1538 1539 1541 1545 1548 1552 1555 1558 1560 1562 1564 1566 1567 1567 1568 1568 1567 1567 1566 1565 1564 1563 1561 1560 1559 1557 1557 1556 1555 1554 1553 1552 1552 1551 1551 1550 1549 1548 1547 1545 1544 1542 1540
1535 1536 1538 1540 1542 1546 1549 1552 1554 1557 1560 1561 1563 1564 1565 1566 1566 1566 1565 1565 1564 1563 1562 1561 1559 1558 1557 1556 1555 1555 1554 1553 1553 1552 1552 1551 1550 1550 1549 1548 1547 1545 1544 1542
1532 1533 1535 1537 1540 1543 1545 1548 1551 1554 1557 1559 1560 1562 1563 1563 1563 1563 1563 1563 1562 1561 1560 1559 1558 1557 1556 1555 1555 1554 1554 1553 1553 1552 1551 1551 1550 1550 1549 1548 1547 1546 1545 1543
1528 1530 1532 1534 1537 1540 1543 1546 1549 1551 1553 1556 1558 1559 1560 1560 1560 1561 1561 1560 1559 1559 1558 1557 1556 1555 1554 1554 1553 1553 1552 1552 1552 1551 1551 1550 1550 1549 1549 1548 1547 1546 1545 1544
1525 1527 1530 1532 1535 1537 1540 1542 1545 1548 1550 1552 1554 1555 1556 1557 1557 1557 1557 1557 1556 1556 1556 1555 1554 1553 1552 1552 1551 1551 1551 1551 1550 1550 1550 1549 1549 1549 1548 1548 1547 1546 1545 1544
1522 1524 1527 1529 1532 1534 1537 1539 1542 1544 1546 1548 1549 1551 1552 1553 1553 1553 1553 1553 1553 1553 1552 1551 1551 1550 1549 1549 1549 1549 1548 1548 1548 1548 1548 1548 1548 1547 1547 1546 1546 1545 1544 1543
1519 1522 1524 1526 1528 1531 1533 1536 1538 1540 1542 1544 1545 1546 1548 1548 1549 1549 1549 1549 1549 1549 1548 1548 1547 1546 1546 1546 1546 1546 1546 1546 1546 1546 1546 1546 1546 1545 1545 1545 1544 1544 1543 1542
1517 1519 1521 1523 1525 1527 1530 1532 1534 1536 1538 1539 1541 1542 1543 1544 1544 1544 1544 1545 1545 1545 1544 1544 1543 1543 1542 1542 1542 1542 1542 1542 1543 1543 1543 1543 1543 1543 1543 1542 1542 1542 1541 1541
1515 1516 1518 1520 1522 1524 1526 1528 1530 1532 1533 1535 1536 1537 1538 1539 1539 1539 1539 1540 1540 1540 1540 1540 1540 1539 1539 1538 1538 1538 1538 1539 1539 1539 1540 1540 1540 1540 1540 1540 1540 1539 1539 1539
1513 1514 1515 1517 1519 1520 1522 1524 1526 1527 1529 1530 1532 1533 1533 1534 1534 1534 1535 1535 1536 1536 1536 1536 1536 1535 1535 1534 1534 1534 1534 1535 1535 1536 1536 1536 1536 1536 1536 1536 1536 1536 1536 1536
1512 1513 1514 1514 1516 1517 1519 1521 1522 1523 1524 1525 1527 1528 1529 1529 1529 1530 1530 1531 1531 1531 1532 1532 1532 1531 1531 1530 1530 1530 1530 1530 1531 1532 1532 1532 1532 1533 1533 1533 1533 1533 1533 1533
1512 1512 1512 1513 1513 1514 1515 1517 1517 1519 1520 1520 1522 1523 1524 1524 1525 1525 1525 1526 1526 1526 1527 1527 1527 1527 1526 1526 1526 1525 1526 1526 1526 1527 1527 1528 1528 1528 1528 1529 1529 1529 1529 1529
1510 1510 1510 1511 1511 1511 1512 1512 1513 1514 1515 1515 1516 1517 1519 1519 1520 1520 1520 1521 1521 1521 1522 1522 1522 1522 1522 1521 1521 1521 1521 1521 1521 1522 1522 1522 1523 1523 1524 1524 1524 1524 1525 1525